KT1D-13 Weather Reports


time (UTC)temp
C
wind
direction
speed
KPH
gust
KPH
rain 1hr
cm
rain 24hr
cm
rain mn
cm
humidity
%
barometer
mb
20260508004542 12 236 3.2 8.0 0.00 0.00 0.00 45 1006.7
20260508003542 12 249 3.2 8.0 0.00 0.00 0.00 44 1006.6
20260508002522 12 251 3.2 8.0 0.00 0.00 0.00 44 1006.5
20260508001522 13 242 3.2 6.4 0.00 0.00 0.00 42 1006.4
20260508000522 13 288 1.6 4.8 0.00 0.00 0.00 42 1006.3
20260507235542 13 255 3.2 6.4 0.00 0.00 0.00 41 1006.2
20260507234522 13 246 4.8 11.3 0.00 0.00 0.00 40 1006.1
20260507233523 14 254 4.8 8.0 0.00 0.00 0.00 40 1006.0
20260507232522 14 236 3.2 6.4 0.00 0.00 0.00 40 1006.0
20260507231517 14 242 3.2 8.0 0.00 0.00 0.00 39 1005.9
20260507230617 15 240 4.8 12.9 0.00 0.00 0.00 38 1005.9
20260507225517 15 255 3.2 9.7 0.00 0.00 0.00 37 1005.7
20260507224520 15 251 8.0 17.7 0.00 0.00 0.00 36 1005.6
20260507223523 15 258 4.8 14.5 0.00 0.00 0.00 36 1005.5
20260507222538 16 254 4.8 12.9 0.00 0.00 0.00 36 1005.5
20260507221518 16 238 4.8 11.3 0.00 0.00 0.00 36 1005.4
20260507220518 16 265 6.4 11.3 0.00 0.00 0.00 36 1005.3
20260507215517 16 265 4.8 11.3 0.00 0.00 0.00 36 1005.2
20260507214518 16 253 4.8 14.5 0.00 0.00 0.00 36 1005.1
20260507213538 16 258 4.8 12.9 0.00 0.00 0.00 35 1005.0
20260507212518 16 242 6.4 16.1 0.00 0.00 0.00 35 1004.9
20260507211518 16 266 6.4 12.9 0.00 0.00 0.00 35 1004.9
20260507210518 16 243 6.4 14.5 0.00 0.00 0.00 35 1004.8
20260507205519 16 242 9.7 16.1 0.00 0.00 0.00 35 1004.8
20260507204519 16 282 6.4 12.9 0.00 0.00 0.00 35 1004.8
20260507203519 16 246 6.4 11.3 0.00 0.00 0.00 36 1004.9
20260507202519 16 348 6.4 11.3 0.00 0.00 0.00 36 1004.8
20260507201519 16 246 6.4 12.9 0.00 0.00 0.00 37 1004.8
20260507200519 16 294 6.4 11.3 0.00 0.00 0.00 37 1004.9
20260507195520 16 260 6.4 12.9 0.00 0.00 0.00 37 1005.0
20260507194517 16 260 9.7 17.7 0.00 0.00 0.00 36 1005.1
20260507193540 16 263 6.4 14.5 0.00 0.00 0.00 36 1005.2
20260507192517 16 262 6.4 20.9 0.00 0.00 0.00 36 1005.3
20260507191520 16 277 6.4 12.9 0.00 0.00 0.00 34 1005.3
20260507190520 16 227 8.0 16.1 0.00 0.00 0.00 33 1005.3
20260507185521 16 249 8.0 16.1 0.00 0.00 0.00 34 1005.5
20260507184521 16 247 8.0 16.1 0.00 0.00 0.00 34 1005.6
20260507183521 16 257 6.4 14.5 0.00 0.00 0.00 35 1005.7
20260507182518 16 254 9.7 24.1 0.00 0.00 0.00 34 1005.6
20260507181521 16 255 6.4 12.9 0.00 0.00 0.00 34 1005.7
20260507180518 15 252 9.7 17.7 0.00 0.00 0.00 36 1005.8
20260507175518 16 267 9.7 19.3 0.00 0.00 0.00 39 1005.8
20260507174518 16 236 8.0 17.7 0.00 0.00 0.00 39 1005.9
20260507173518 15 243 8.0 17.7 0.00 0.00 0.00 41 1005.9
20260507172518 15 250 9.7 27.4 0.00 0.00 0.00 40 1005.8
20260507171522 16 278 6.4 16.1 0.00 0.00 0.00 41 1006.0
20260507170542 16 264 6.4 14.5 0.00 0.00 0.00 42 1006.2
20260507165519 15 260 8.0 16.1 0.00 0.00 0.00 44 1006.2
20260507164519 15 290 6.4 16.1 0.00 0.00 0.00 46 1006.3
20260507163539 15 246 9.7 16.1 0.00 0.00 0.00 47 1006.4
20260507162516 15 349 4.8 14.5 0.00 0.00 0.00 49 1006.6
20260507161516 15 286 6.4 16.1 0.00 0.00 0.00 51 1006.6
20260507160520 14 236 6.4 20.9 0.00 0.00 0.00 56 1006.7
20260507155523 15 250 6.4 14.5 0.00 0.00 0.00 54 1006.7
20260507154519 14 254 8.0 19.3 0.00 0.00 0.00 58 1006.8
20260507153520 14 240 8.0 17.7 0.00 0.00 0.00 57 1006.8
20260507152517 14 250 8.0 16.1 0.00 0.00 0.00 60 1006.9
20260507151517 14 30 3.2 11.3 0.00 0.00 0.00 61 1007.1
20260507150517 13 262 6.4 12.9 0.00 0.00 0.00 62 1007.2
20260507145529 13 274 3.2 8.0 0.00 0.00 0.00 62 1007.3
20260507144537 13 250 4.8 12.9 0.00 0.00 0.00 62 1007.5
20260507143529 13 256 3.2 8.0 0.00 0.00 0.00 60 1007.6
20260507142529 13 282 3.2 8.0 0.00 0.00 0.00 62 1007.5
20260507141530 13 246 3.2 6.4 0.00 0.00 0.00 62 1007.6
20260507140530 13 344 3.2 8.0 0.00 0.00 0.00 62 1007.6
20260507135518 12 304 4.8 9.7 0.00 0.00 0.00 64 1007.6
20260507134518 12 271 4.8 11.3 0.00 0.00 0.00 67 1007.5
20260507133518 12 265 4.8 9.7 0.00 0.00 0.00 67 1007.5
20260507132519 12 253 4.8 11.3 0.00 0.00 0.00 69 1007.6
20260507131519 11 263 3.2 8.0 0.00 0.00 0.00 72 1007.7
20260507130530 11 251 3.2 6.4 0.00 0.00 0.00 75 1007.6
20260507125538 11 334 4.8 11.3 0.00 0.00 0.00 78 1007.6
20260507124530 10 242 3.2 4.8 0.00 0.00 0.00 83 1007.7
20260507123519 10 237 3.2 8.0 0.00 0.00 0.00 88 1007.7
20260507122531 9 252 4.8 6.4 0.00 0.00 0.00 89 1007.6
20260507121519 9 234 3.2 11.3 0.00 0.00 0.00 92 1007.7
20260507120531 9 240 3.2 4.8 0.00 0.00 0.00 93 1007.6
20260507115531 9 284 1.6 3.2 0.00 0.00 0.00 94 1007.6
20260507114531 8 255 1.6 3.2 0.00 0.00 0.00 95 1007.6
20260507113532 8 258 1.6 6.4 0.00 0.00 0.00 96 1007.4
20260507112532 8 246 3.2 6.4 0.00 0.00 0.00 96 1007.5
20260507111537 8 237 3.2 4.8 0.00 0.00 0.00 96 1007.5
20260507110517 8 232 0.0 1.6 0.00 0.00 0.00 96 1007.3
20260507105517 8 272 1.6 3.2 0.00 0.00 0.00 96 1007.4
20260507104517 8 259 1.6 4.8 0.00 0.00 0.00 96 1007.6
20260507103558 8 228 1.6 3.2 0.00 0.00 0.00 96 1007.5
20260507102518 8 245 3.2 4.8 0.00 0.00 0.00 95 1007.1
20260507101518 8 251 0.0 1.6 0.00 0.00 0.00 95 1006.8
20260507100518 8 176 1.6 3.2 0.00 0.00 0.00 95 1006.9
20260507095518 8 218 1.6 4.8 0.00 0.00 0.00 95 1006.7
20260507094519 8 237 1.6 4.8 0.00 0.00 0.00 95 1006.7
20260507093559 9 227 0.0 3.2 0.00 0.00 0.00 94 1006.8
20260507092519 9 266 1.6 3.2 0.00 0.00 0.00 94 1006.9
20260507091519 9 277 1.6 3.2 0.00 0.00 0.00 94 1006.9
20260507090519 9 244 3.2 4.8 0.00 0.00 0.00 94 1007.2
20260507085519 10 253 3.2 6.4 0.00 0.00 0.00 94 1007.1
20260507084523 10 246 3.2 8.0 0.00 0.00 0.00 94 1007.0
20260507083520 10 242 3.2 6.4 0.00 0.00 0.00 94 1006.9
20260507082520 10 247 4.8 6.4 0.00 0.00 0.00 94 1006.8
20260507081520 10 243 3.2 4.8 0.00 0.00 0.00 94 1006.4
20260507080540 10 257 3.2 4.8 0.00 0.00 0.00 93 1006.7
20260507075520 11 250 3.2 4.8 0.00 0.00 0.00 92 1006.9
20260507074520 11 259 3.2 8.0 0.00 0.00 0.00 90 1006.5
20260507073537 11 252 4.8 11.3 0.00 0.00 0.00 90 1006.8
20260507072518 11 257 4.8 12.9 0.00 0.00 0.00 91 1006.1
20260507071521 12 288 3.2 4.8 0.00 0.00 0.00 91 1005.9
20260507070521 12 259 3.2 4.8 0.00 0.00 0.00 91 1006.0
20260507065521 12 283 3.2 4.8 0.00 0.00 0.00 92 1005.9
20260507064541 12 264 3.2 4.8 0.00 0.00 0.00 91 1005.8
20260507063521 12 265 3.2 6.4 0.00 0.00 0.00 91 1006.0
20260507062522 12 241 3.2 8.0 0.00 0.00 0.00 91 1006.0
20260507061521 12 276 3.2 4.8 0.00 0.00 0.00 91 1005.8
20260507060519 12 275 3.2 8.0 0.00 0.00 0.00 90 1006.0
20260507055522 12 240 3.2 6.4 0.00 0.00 0.00 90 1006.0
20260507054519 12 251 3.2 8.0 0.00 0.00 0.00 91 1006.0
20260507053543 13 260 3.2 6.4 0.00 0.00 0.00 92 1006.2
20260507052522 13 242 3.2 6.4 0.00 0.00 0.00 93 1006.0
20260507051522 13 239 3.2 6.4 0.00 0.00 0.00 93 1005.8
20260507050520 13 240 3.2 11.3 0.00 0.00 0.00 93 1005.9
20260507045520 13 244 3.2 11.3 0.00 0.00 0.00 94 1006.1
20260507044540 13 251 4.8 11.3 0.00 0.00 0.00 96 1006.2
20260507043520 14 251 4.8 11.3 0.00 0.00 0.00 96 1005.9
20260507042523 14 246 3.2 4.8 0.00 0.00 0.00 96 1006.0
20260507041521 14 252 4.8 8.0 0.00 0.00 0.00 97 1006.0
20260507040521 15 255 6.4 12.9 0.00 0.00 0.00 97 1006.1
20260507035520 15 252 4.8 9.7 0.00 0.00 0.00 97 1006.2
20260507034521 15 249 6.4 11.3 0.00 0.00 0.00 97 1005.8
20260507033521 15 250 6.4 11.3 0.00 0.00 0.00 96 1005.7
20260507032521 15 253 8.0 14.5 0.00 0.00 0.00 96 1005.8
20260507031521 15 250 6.4 12.9 0.00 0.00 0.00 95 1005.5
20260507030541 15 242 4.8 8.0 0.00 0.00 0.00 95 1005.3
20260507025521 15 242 6.4 12.9 0.00 0.00 0.00 95 1005.2
20260507024522 15 241 4.8 12.9 0.00 0.00 0.00 95 1005.3
20260507023516 15 240 6.4 11.3 0.00 0.00 0.00 95 1005.4
20260507022519 15 250 4.8 16.1 0.00 0.00 0.00 95 1005.4
20260507021521 15 230 4.8 11.3 0.00 0.00 0.00 95 1005.4
20260507020522 15 233 4.8 11.3 0.00 0.00 0.00 95 1005.4
20260507015522 15 202 4.8 12.9 0.00 0.00 0.00 95 1005.3
20260507014543 15 235 4.8 12.9 0.00 0.00 0.00 95 1005.5
20260507013522 15 208 6.4 16.1 0.00 0.00 0.00 95 1005.4
20260507012517 14 200 6.4 12.9 0.00 0.00 0.00 96 1005.5
20260507011517 14 194 6.4 14.5 0.00 0.00 0.00 95 1005.5
20260507010517 14 202 9.7 19.3 0.00 0.00 0.00 95 1005.6
20260507005517 14 221 6.4 12.9 0.00 0.00 0.00 95 1005.7